Regional Weather Roundup
Issued by NWS

Home | Current Version | Previous Version | Graphics & Text | Print | Product List | Glossary On
Versions: 1 2 3 4 5 6 7 8 9 10 11 12 13 14 15 16 17 18 19 20 21 22 23 24 25 26 27 28 29 30 31 32 33 34 35 36 37 38 39 40 41 42 43 44 45 46 47 48 49 50
954
ASUS43 KOAX 201502
RWRNE

WEATHER ROUNDUP FOR NEBRASKA
NATIONAL WEATHER SERVICE OMAHA NE
1000 AM CDT WED SEP 20 2017

NOTES: SATELLITE DATA IS BEING USED TO AUGMENT CLOUD COVER ABOVE
       12000 FEET.
       "FAIR" INDICATES FEW OR NO CLOUDS BELOW 12,000 FEET WITH NO
       SIGNIFICANT WEATHER AND/OR OBSTRUCTIONS TO VISIBILITY.


NEZ001>004-019>022-054>056-201600-
NEBRASKA PANHANDLE

CITY           SKY/WX    TMP DP  RH WIND       PRES   REMARKS
SCOTTSBLUFF    CLOUDY    58  30  34 NW17      29.92S
ALLIANCE       CLOUDY    54  31  41 W14       29.92R
CHADRON        SUNNY     58  24  27 SW17      29.89S
GORDON         FAIR      57  30  35 W15       29.90R
KIMBALL        CLOUDY    54  33  44 W12       29.98R
SIDNEY         SUNNY     59  25  27 NW10      29.98S
$$

NEZ057>060-069>072-079>082-201600-
SOUTHWEST NEBRASKA

CITY           SKY/WX    TMP DP  RH WIND       PRES   REMARKS
NORTH PLATTE   SUNNY     59  44  57 NW6       29.95S
IMPERIAL       SUNNY     58  36  43 W5        29.99R
LEXINGTON      SUNNY     58  45  62 W7        29.94R
MCCOOK         SUNNY     60  41  49 W3        29.95S
OGALLALA       SUNNY     55  41  60 SW3       29.97R
$$

NEZ005>010-023>029-035>040-094-201600-
NORTH CENTRAL NEBRASKA

CITY           SKY/WX    TMP DP  RH WIND       PRES   REMARKS
VALENTINE      SUNNY     59  46  62 S8        29.89R
AINSWORTH      MOSUNNY   58  47  66 SW5       29.91R
BROKEN BOW     SUNNY     60  47  61 W5        29.92R
O`NEILL        SUNNY     59  49  67 W7        29.89R
ORD            SUNNY     61  46  57 NW8       29.89R
THEDFORD       SUNNY     62  38  41 W9        29.93R
$$

NEZ041-046>049-061>064-073>077-083>087-201600-
SOUTH CENTRAL NEBRASKA

CITY           SKY/WX    TMP DP  RH WIND       PRES   REMARKS
GRAND ISLAND   SUNNY     63  50  62 NW12      29.90R
AURORA         SUNNY     62  50  64 NW10      29.89R
HASTINGS       SUNNY     63  47  55 N13       29.90R
HEBRON         SUNNY     69  52  55 N9G16     29.85R
HOLDREGE       SUNNY     60  45  57 N7        29.93R
KEARNEY        SUNNY     62  47  57 N10       29.92R
YORK           SUNNY     64  52  63 NW9G16    29.87R
$$

NEZ011>018-030>034-042>045-201600-
NORTHEAST NEBRASKA

CITY           SKY/WX    TMP DP  RH WIND       PRES   REMARKS
NORFOLK        SUNNY     62  50  64 NW13      29.85R
ALBION         SUNNY     60  51  71 NW7       29.88R
BLAIR          SUNNY     69  54  60 N13G18    29.81R
COLUMBUS       SUNNY     64  51  62 N9        29.87R
FREMONT        SUNNY     66  55  66 NW13      29.83R
TEKAMAH        SUNNY     68  54  60 N14       29.81R
WAYNE          SUNNY     61  53  73 NW10      29.84R
$$

NEZ050>053-065>068-078-088>093-201600-
SOUTHEAST NEBRASKA

CITY           SKY/WX    TMP DP  RH WIND       PRES   REMARKS
LINCOLN        SUNNY     71  52  50 N12       29.82R
OMAHA EPPLEY   SUNNY     70  54  56 N18       29.79R
BEATRICE       SUNNY     72  53  50 N14       29.81R
FALLS CITY     SUNNY     79  69  71 SW12      29.76R
NEBRASKA CITY  CLOUDY    72  67  84 N8        29.78R
PLATTSMOUTH    SUNNY     70  58  66 N8        29.78R
$$

NEZ044-045-051>053-067-201600-
OMAHA AREA

CITY           SKY/WX    TMP DP  RH WIND       PRES   REMARKS
OMAHA EPPLEY   SUNNY     70  54  56 N18       29.79R
BLAIR          SUNNY     69  54  60 N13G18    29.81R
FREMONT        SUNNY     66  55  66 NW13      29.83R
MILLARD        SUNNY     71  55  56 N9        29.80R
OFFUTT AFB     SUNNY     72  54  53 N12       29.78R
PLATTSMOUTH    SUNNY     70  58  66 N8        29.78R
WAHOO          FAIR      67  55  64 N12       29.82R
$$




USA.gov is the U.S. government's official web portal to all federal, state and local government web resources and services.